Weather History for EHKD - March, 2013

Change the Weather History Date:

Tuesday, March 5, 2013

  Actual Average Record
Temperature  
Mean Temperature 48 °F -  
Max Temperature 59 °F 46 °F 59 °F (2013)
Min Temperature 36 °F 37 °F 26 °F (2001)
Degree Days  
Heating Degree Days 18    
Moisture  
Dew Point 34 °F    
Average Humidity 64    
Maximum Humidity 87    
Minimum Humidity 29    
Precipitation  
Precipitation 0.00 in 0.07 in - ()
Sea Level Pressure  
Sea Level Pressure 29.76 in    
Wind  
Wind Speed 8 mph ()    
Max Wind Speed 15 mph    
Max Gust Speed -    
Visibility 6.8 miles    
Events      
Averages and records for this station are not official NWS values.
T = Trace of Precipitation, MM = Missing Value Source: Averaged Metar Reports

Daily Weather History Graph

Daily Weather History Graph

Search for Another Location

Airport or City:

Trip Planner

Search our weather history database for the weather conditions in past years. The results will help you decide how hot, cold, wet, or windy it might be!

Date:

Astronomy

Mar. 05, 2013 Rise Set
Actual Time 7:18 AM CET 6:27 PM CET
Civil Twilight 6:44 AM CET 7:01 PM CET
Nautical Twilight 6:04 AM CET 7:41 PM CET
Astronomical Twilight 5:23 AM CET 8:22 PM CET
Moon 2:51 AM CET (3/5) 11:13 AM CET (3/5)
Length of Visible Light 12h 17m
Length of Day
11h 08m
Last Quarter, 44% of the Moon is Illuminated
Mar 5
Last Quarter
Mar 11
New
Mar 19
First Quarter
Mar 27
Full
Apr 3
Last Quarter

Hourly Weather History & Observations

Time (CET) Temp. Windchill Dew Point Humidity Pressure Visibility Wind Dir Wind Speed Gust Speed Precip Events Conditions
12:25 AM 39.2 °F 34.2 °F 30.2 °F 70% 29.86 in 6.2 mi SSE 6.9 mph - N/A   Partly Cloudy
12:55 AM 39.2 °F 33.6 °F 30.2 °F 70% 29.86 in 6.2 mi SSE 8.1 mph - N/A   Unknown
1:00 AM 39 °F - 30 °F 61% 29.87 in 13 mi SSE 8.9 mph - -   Partly Cloudy
1:25 AM 39.2 °F 33.6 °F 30.2 °F 70% 29.86 in 6.2 mi SSE 8.1 mph - N/A   Partly Cloudy
1:55 AM 37.4 °F 31.4 °F 30.2 °F 75% 29.86 in 6.2 mi SSE 8.1 mph - N/A   Mostly Cloudy
2:25 AM 39.2 °F 34.2 °F 30.2 °F 70% 29.86 in 6.2 mi SSE 6.9 mph - N/A   Partly Cloudy
2:55 AM 37.4 °F 30.8 °F 30.2 °F 75% 29.83 in 6.2 mi SSE 9.2 mph - N/A   Partly Cloudy
3:25 AM 37.4 °F 30.8 °F 30.2 °F 75% 29.83 in 6.2 mi SSE 9.2 mph - N/A   Partly Cloudy
3:55 AM 37.4 °F 30.3 °F 30.2 °F 75% 29.83 in 6.2 mi SSE 10.4 mph - N/A   Unknown
4:00 AM 38 °F - 30 °F 64% 29.83 in 11 mi SSE 8.9 mph - -   Scattered Clouds
4:25 AM 37.4 °F 30.8 °F 30.2 °F 75% 29.83 in 6.2 mi SSE 9.2 mph - N/A   Partly Cloudy
4:55 AM 37.4 °F 30.8 °F 30.2 °F 75% 29.83 in 6.2 mi SSE 9.2 mph - N/A   Unknown
5:25 AM 37.4 °F 30.3 °F 30.2 °F 75% 29.80 in 6.2 mi SSE 10.4 mph - N/A   Mostly Cloudy
5:55 AM 37.4 °F 30.3 °F 30.2 °F 75% 29.80 in 6.2 mi SSE 10.4 mph - N/A   Partly Cloudy
6:09 AM 37.4 °F 30.8 °F 30.2 °F 75% 29.80 in 6.2 mi SSE 9.2 mph - N/A   Scattered Clouds
6:25 AM 37.4 °F 30.8 °F 30.2 °F 75% 29.80 in 6.2 mi SSE 9.2 mph - N/A   Partly Cloudy
6:55 AM 35.6 °F 28.6 °F 30.2 °F 81% 29.80 in 6.2 mi SSE 9.2 mph - N/A   Partly Cloudy
7:00 AM 37 °F - 30 °F 67% 29.82 in 8 mi SSE 8.9 mph - -   Partly Cloudy
7:25 AM 37.4 °F 32.1 °F 30.2 °F 75% 29.80 in 6.2 mi SSE 6.9 mph - N/A   Unknown
7:55 AM 37.4 °F 31.4 °F 30.2 °F 75% 29.80 in 6.2 mi SSE 8.1 mph - N/A   Unknown
8:25 AM 37.4 °F 30.8 °F 30.2 °F 75% 29.80 in 6.2 mi SSE 9.2 mph - N/A   Partly Cloudy
8:55 AM 39.2 °F 33.0 °F 32.0 °F 75% 29.80 in 6.2 mi SSE 9.2 mph - N/A   Partly Cloudy
9:25 AM 41.0 °F 34.7 °F 32.0 °F 70% 29.80 in 6.2 mi SSE 10.4 mph - N/A   Unknown
9:55 AM 42.8 °F 37.0 °F 32.0 °F 66% 29.80 in 6.2 mi SSE 10.4 mph - N/A   Unknown
10:00 AM 44 °F - 33 °F 56% 29.79 in 8 mi SSE 11.2 mph - -  
10:25 AM 46.4 °F 41.1 °F 33.8 °F 62% 29.77 in 6.2 mi SSE 11.5 mph - N/A   Partly Cloudy
10:55 AM 48.2 °F - 35.6 °F 62% 29.77 in 6.2 mi South 12.7 mph - N/A   Scattered Clouds
11:25 AM 50.0 °F - 35.6 °F 58% 29.77 in 6.2 mi SSE 10.4 mph - N/A   Scattered Clouds
11:55 AM 51.8 °F - 37.4 °F 58% 29.77 in 6.2 mi SSE 9.2 mph - N/A   Scattered Clouds
12:25 PM 53.6 °F - 37.4 °F 54% 29.77 in 6.2 mi South 12.7 mph - N/A   Partly Cloudy
12:55 PM 55.4 °F - 37.4 °F 51% 29.77 in 6.2 mi SSE 12.7 mph - N/A   Scattered Clouds
1:25 PM 55.4 °F - 39.2 °F 54% 29.74 in 6.2 mi SSE 10.4 mph - N/A   Partly Cloudy
1:55 PM 57.2 °F - 35.6 °F 44% 29.74 in 6.2 mi South 12.7 mph - N/A   Partly Cloudy
2:25 PM 59.0 °F - 35.6 °F 42% 29.74 in 6.2 mi South 15.0 mph - N/A   Unknown
2:55 PM 59.0 °F - 33.8 °F 39% 29.71 in 6.2 mi South 13.8 mph - N/A   Unknown
3:25 PM 59.0 °F - 35.6 °F 42% 29.71 in 6.2 mi South 12.7 mph - N/A   Scattered Clouds
3:55 PM 59.0 °F - 35.6 °F 42% 29.71 in 6.2 mi South 12.7 mph - N/A   Partly Cloudy
4:00 PM 59 °F - 35 °F 29% 29.72 in 14 mi South 11.2 mph - -   Scattered Clouds
4:09 PM 59.0 °F - 35.6 °F 42% 29.71 in 6.2 mi South 11.5 mph - N/A   Unknown
4:25 PM 57.2 °F - 33.8 °F 41% 29.71 in 6.2 mi SW 9.2 mph - N/A   Partly Cloudy
4:55 PM 55.4 °F - 33.8 °F 44% 29.71 in 6.2 mi SW 6.9 mph - N/A   Unknown
5:25 PM 53.6 °F - 37.4 °F 54% 29.68 in 6.2 mi SSW 5.8 mph - N/A   Unknown
5:55 PM 53.6 °F - 35.6 °F 51% 29.68 in 6.2 mi SSE 2.3 mph - N/A   Partly Cloudy
6:25 PM 48.2 °F - 35.6 °F 62% 29.71 in 6.2 mi NW 1.2 mph - N/A   Unknown
6:55 PM 48.2 °F - 35.6 °F 62% 29.68 in 6.2 mi NE 3.5 mph - N/A   Partly Cloudy
7:00 PM 48 °F - 36 °F 52% 29.71 in 12 mi NE 2.2 mph - -   Partly Cloudy
7:25 PM 44.6 °F 43.1 °F 37.4 °F 76% 29.68 in 6.2 mi ENE 3.5 mph - N/A   Partly Cloudy
7:55 PM 46.4 °F 44.3 °F 39.2 °F 76% 29.68 in 6.2 mi East 4.6 mph - N/A   Partly Cloudy
8:25 PM 41.0 °F 37.1 °F 37.4 °F 87% 29.68 in 6.2 mi East 5.8 mph - N/A   Partly Cloudy
8:55 PM 44.6 °F 40.7 °F 35.6 °F 71% 29.68 in 6.2 mi East 6.9 mph - N/A   Unknown
9:25 PM 46.4 °F 42.9 °F 35.6 °F 66% 29.68 in 6.2 mi ESE 6.9 mph - N/A   Unknown
9:55 PM 44.6 °F 40.7 °F 35.6 °F 71% 29.68 in 6.2 mi ESE 6.9 mph - N/A   Unknown
10:00 PM 44 °F - 36 °F 66% 29.70 in 10 mi ESE 6.7 mph - -  
10:25 PM 42.8 °F 38.6 °F 35.6 °F 76% 29.68 in 6.2 mi SE 6.9 mph - N/A   Partly Cloudy
10:55 PM 42.8 °F 38.6 °F 35.6 °F 76% 29.68 in 6.2 mi SE 6.9 mph - N/A   Partly Cloudy
11:25 PM 44.6 °F 41.4 °F 35.6 °F 71% 29.68 in 6.2 mi ESE 5.8 mph - N/A   Partly Cloudy
11:55 PM 44.6 °F 40.7 °F 35.6 °F 71% 29.68 in 6.2 mi SE 6.9 mph - N/A   Unknown